Туркменбаши

Туркменистан     40°00′54″N   52°58′58″E
темп.,
°C
ветер,
м/с
пор.,
м/с
влажн.,
%
обл.,
%
осадки,
мм/ч
давл.,
гПа
погр.,
м
17 апреля, сб
сб1723:00+18с58460 0.0 1019134
02:00+17с34470 0.0 101944
05:00+16с224727 0.0 102011
08:00+17св11431 0.0 102011
11:00+20ююв33355 0.0 1021323
14:00+19ююз43365 0.0 1021430
17:00+19юз223918 0.0 1019257
20:00+19ю11395 0.0 1019137
18 апреля, вс
вс1823:00+19ю11405 0.0 101911
02:00+19с22395 0.0 101811
05:00+18св22415 0.0 101811
08:00+19ссв224036 0.0 101814
11:00+21ю123470 0.0 1018351
14:00+22юз233140 0.0 1017520
17:00+24з32287 0.0 1015552
20:00+22ссз6633100 0.0 1014238
19 апреля, пн
пн1923:00+19с68405 0.0 1014138
02:00+17ссз71049100 0.0 1014169
05:00+16ссз71052100 0.0 1015210
08:00+14сз6864100 0.0 1016216
11:00+16зсз56615 0.0 1016255
14:00+17зсз7857100 0.0 1016417
17:00+17зсз78555 0.0 1016393
20:00+15зсз576692 0.0 1016229
20 апреля, вт
вт2023:00+15сз57675 0.0 1017195
02:00+15зсз34699 0.0 1017101
05:00+14сз337064 0.0 101643
08:00+15с226296 0.0 101751
11:00+19ююз104886 0.0 1016241
14:00+19ююз3247100 0.0 1015391
17:00+19ююз3349100 0.0 1013247
20:00+19ююв2349100 0.0 1012122
21 апреля, ср
ср2123:00+19в334697 0.0 101143
02:00+20в4441100 0.0 101121
05:00+20в44425 0.0 101118
08:00+20всв3443100 0.1 101257
11:00+23в34385 0.6 1014342
14:00+24зюз423627 0.0 1014484
17:00+22сз664156 0.0 1014232
20:00+22ссз564399 0.0 1014140